QPF
0.00 0.01 0.00 0.00 0.00 0.00 0.00 0.00 0.00 0.00 0.00 0.01 0.01 0.00 0.00 0.01 0.01 0.01 0.01 0.01 0.01 0.01 0.01 0.03 0.06 0.08 0.08 0.09 0.09 0.07 0.07 0.09 0.13 0.09 0.04 0.03 0.03 0.05 0.06 0.07 0.08 0.08 0.10 0.12
0.00 0.00 0.00 0.00 0.00 0.00 0.01 0.01 0.00 0.00 0.00 0.01 0.01 0.00 0.00 0.01 0.01 0.01 0.01 0.01 0.01 0.01 0.02 0.02 0.04 0.06 0.08 0.08 0.08 0.06 0.06 0.07 0.10 0.10 0.04 0.04 0.04 0.04 0.06 0.08 0.08 0.08 0.09 0.11
0.00 0.00 0.00 0.00 0.00 0.01 0.01 0.00 0.00 0.00 0.00 0.01 0.02 0.01 0.01 0.01 0.01 0.01 0.00 0.01 0.01 0.01 0.01 0.02 0.03 0.03 0.05 0.07 0.08 0.07 0.05 0.06 0.06 0.07 0.05 0.04 0.05 0.06 0.07 0.07 0.07 0.08 0.09 0.11
0.00 0.00 0.00 0.00 0.00 0.00 0.00 0.00 0.00 0.01 0.02 0.01 0.01 0.02 0.01 0.01 0.00 0.00 0.00 0.01 0.02 0.02 0.02 0.02 0.02 0.03 0.03 0.04 0.06 0.07 0.06 0.06 0.04 0.04 0.04 0.04 0.04 0.06 0.07 0.09 0.09 0.08 0.07 0.08
0.00 0.00 0.00 0.00 0.00 0.00 0.00 0.00 0.01 0.01 0.02 0.01 0.01 0.01 0.00 0.00 0.00 0.00 0.00 0.01 0.01 0.01 0.02 0.02 0.02 0.02 0.03 0.03 0.04 0.05 0.05 0.04 0.04 0.04 0.04 0.04 0.05 0.06 0.07 0.08 0.10 0.11 0.10 0.07
0.00 0.00 0.00 0.00 0.00 0.00 0.01 0.01 0.01 0.01 0.02 0.02 0.00 0.00 0.00 0.00 0.00 0.00 0.00 0.00 0.01 0.01 0.01 0.01 0.02 0.02 0.02 0.02 0.02 0.03 0.04 0.03 0.03 0.03 0.04 0.03 0.04 0.05 0.06 0.07 0.09 0.11 0.12 0.09
0.00 0.00 0.00 0.00 0.00 0.00 0.01 0.02 0.03 0.03 0.02 0.01 0.00 0.00 0.00 0.00 0.00 0.00 0.00 0.00 0.00 0.01 0.01 0.01 0.01 0.01 0.01 0.01 0.02 0.02 0.03 0.03 0.03 0.03 0.03 0.03 0.03 0.04 0.04 0.04 0.05 0.09 0.12 0.11
0.00 0.00 0.00 0.00 0.00 0.00 0.00 0.01 0.02 0.01 0.01 0.00 0.00 0.00 0.00 0.00 0.00 0.00 0.00 0.00 0.00 0.00 0.00 0.00 0.00 0.00 0.01 0.01 0.01 0.02 0.03 0.03 0.02 0.03 0.03 0.03 0.02 0.03 0.03 0.03 0.03 0.04 0.06 0.08
0.01 0.00 0.00 0.00 0.00 0.00 0.00 0.00 0.00 0.01 0.01 0.01 0.01 0.00 0.00 0.00 0.00 0.00 0.00 0.00 0.00 0.00 0.00 0.00 0.00 0.01 0.01 0.01 0.02 0.02 0.02 0.02 0.03 0.02 0.03 0.03 0.03 0.02 0.02 0.02 0.03 0.03 0.04 0.05
0.01 0.01 0.00 0.00 0.00 0.00 0.00 0.01 0.01 0.02 0.02 0.01 0.00 0.00 0.00 0.00 0.00 0.00 0.00 0.00 0.00 0.00 0.00 0.00 0.00 0.01 0.01 0.01 0.01 0.02 0.01 0.02 0.02 0.02 0.03 0.03 0.03 0.02 0.02 0.02 0.02 0.02 0.03 0.04
0.02 0.02 0.01 0.01 0.01 0.01 0.01 0.01 0.01 0.02 0.02 0.01 0.01 0.00 0.00 0.00 0.00 0.00 0.00 0.00 0.00 0.00 0.00 0.00 0.00 0.01 0.01 0.01 0.01 0.01 0.01 0.01 0.02 0.02 0.03 0.03 0.03 0.03 0.02 0.02 0.01 0.01 0.01 0.02
0.01 0.02 0.02 0.01 0.01 0.01 0.01 0.01 0.01 0.02 0.02 0.01 0.01 0.01 0.00 0.00 0.00 0.00 0.00 0.00 0.00 0.00 0.00 0.00 0.00 0.01 0.01 0.01 0.01 0.01 0.00 0.01 0.01 0.02 0.03 0.03 0.02 0.03 0.03 0.02 0.02 0.01 0.01 0.02
0.03 0.05 0.04 0.03 0.02 0.01 0.01 0.01 0.01 0.01 0.02 0.02 0.02 0.01 0.00 0.00 0.00 0.00 0.00 0.00 0.00 0.00 0.00 0.00 0.00 0.00 0.01 0.01 0.01 0.01 0.00 0.01 0.01 0.01 0.02 0.04 0.03 0.03 0.03 0.02 0.02 0.02 0.01 0.01
0.05 0.05 0.03 0.03 0.02 0.02 0.02 0.02 0.01 0.02 0.02 0.01 0.01 0.00 0.00 0.00 0.00 0.00 0.00 0.00 0.00 0.00 0.00 0.00 0.00 0.01 0.01 0.01 0.01 0.01 0.01 0.01 0.00 0.00 0.01 0.02 0.03 0.03 0.02 0.02 0.02 0.02 0.01 0.01
0.05 0.06 0.03 0.02 0.01 0.02 0.01 0.01 0.00 0.01 0.01 0.01 0.01 0.00 0.00 0.00 0.00 0.00 0.00 0.00 0.00 0.00 0.00 0.00 0.00 0.01 0.01 0.01 0.01 0.02 0.02 0.01 0.01 0.01 0.01 0.01 0.01 0.02 0.03 0.03 0.02 0.02 0.02 0.02
0.05 0.04 0.02 0.01 0.01 0.01 0.01 0.01 0.00 0.01 0.01 0.01 0.00 0.00 0.00 0.00 0.00 0.00 0.00 0.00 0.00 0.00 0.00 0.00 0.00 0.01 0.01 0.01 0.02 0.02 0.02 0.02 0.01 0.01 0.01 0.01 0.01 0.01 0.02 0.02 0.02 0.03 0.02 0.01
0.05 0.04 0.02 0.02 0.01 0.01 0.02 0.01 0.01 0.01 0.01 0.01 0.01 0.00 0.00 0.00 0.00 0.00 0.00 0.00 0.00 0.00 0.00 0.00 0.00 0.00 0.01 0.01 0.02 0.02 0.03 0.02 0.02 0.01 0.01 0.01 0.01 0.01 0.01 0.02 0.02 0.02 0.02 0.02
0.04 0.04 0.04 0.02 0.02 0.03 0.01 0.01 0.01 0.01 0.01 0.01 0.01 0.01 0.00 0.00 0.00 0.00 0.00 0.00 0.00 0.00 0.00 0.00 0.00 0.00 0.01 0.01 0.01 0.02 0.03 0.03 0.02 0.01 0.01 0.01 0.01 0.02 0.01 0.01 0.01 0.02 0.02 0.02
0.03 0.04 0.06 0.04 0.03 0.02 0.01 0.01 0.01 0.01 0.01 0.01 0.01 0.01 0.01 0.00 0.00 0.00 0.00 0.00 0.00 0.00 0.00 0.00 0.00 0.00 0.01 0.01 0.01 0.02 0.03 0.03 0.02 0.02 0.01 0.01 0.01 0.02 0.01 0.01 0.01 0.01 0.02 0.02
0.03 0.05 0.07 0.06 0.04 0.02 0.02 0.01 0.01 0.01 0.01 0.01 0.01 0.01 0.01 0.01 0.01 0.00 0.00 0.00 0.00 0.00 0.00 0.00 0.00 0.00 0.00 0.00 0.01 0.02 0.02 0.03 0.03 0.02 0.01 0.01 0.01 0.01 0.01 0.01 0.01 0.01 0.01 0.01
0.04 0.06 0.08 0.06 0.05 0.02 0.02 0.01 0.01 0.02 0.02 0.01 0.01 0.01 0.01 0.01 0.01 0.01 0.01 0.00 0.00 0.00 0.00 0.00 0.00 0.00 0.00 0.00 0.00 0.01 0.01 0.02 0.03 0.02 0.01 0.01 0.01 0.01 0.01 0.01 0.01 0.01 0.01 0.02
0.05 0.06 0.06 0.06 0.06 0.04 0.02 0.01 0.02 0.02 0.01 0.01 0.01 0.01 0.01 0.01 0.01 0.01 0.01 0.01 0.00 0.00 0.00 0.00 0.00 0.00 0.00 0.00 0.00 0.00 0.00 0.01 0.02 0.03 0.02 0.01 0.01 0.01 0.01 0.01 0.01 0.01 0.02 0.02
0.04 0.06 0.06 0.06 0.06 0.04 0.02 0.02 0.02 0.01 0.01 0.01 0.01 0.01 0.01 0.01 0.01 0.01 0.01 0.01 0.01 0.00 0.00 0.00 0.00 0.00 0.00 0.00 0.01 0.01 0.01 0.01 0.01 0.02 0.03 0.03 0.02 0.01 0.01 0.01 0.01 0.02 0.02 0.02
0.04 0.04 0.04 0.05 0.05 0.04 0.03 0.02 0.01 0.01 0.01 0.01 0.01 0.01 0.01 0.01 0.01 0.01 0.01 0.01 0.01 0.01 0.01 0.00 0.01 0.01 0.00 0.00 0.01 0.01 0.01 0.01 0.01 0.02 0.02 0.03 0.03 0.02 0.01 0.01 0.01 0.01 0.01 0.01
0.04 0.03 0.04 0.04 0.04 0.03 0.03 0.02 0.02 0.01 0.01 0.01 0.01 0.01 0.01 0.01 0.01 0.01 0.01 0.01 0.01 0.01 0.01 0.00 0.01 0.01 0.01 0.00 0.00 0.01 0.01 0.01 0.02 0.02 0.02 0.02 0.03 0.02 0.01 0.01 0.01 0.01 0.01 0.01
0.04 0.04 0.04 0.05 0.04 0.04 0.04 0.03 0.02 0.02 0.01 0.01 0.00 0.00 0.00 0.00 0.00 0.00 0.00 0.00 0.01 0.01 0.00 0.00 0.00 0.00 0.01 0.01 0.00 0.00 0.00 0.01 0.02 0.02 0.02 0.02 0.02 0.02 0.01 0.01 0.01 0.01 0.01 0.01
MSLP
1015.79 1015.65 1015.36 1014.93 1014.40 1013.83 1013.24 1012.68 1012.16 1011.67 1011.22 1010.78 1010.35 1009.91 1009.49 1009.10 1008.77 1008.52 1008.39 1008.38 1008.49 1008.72 1009.05 1009.45 1009.91 1010.40 1010.93 1011.49 1012.08 1012.69 1013.32 1013.95 1014.58 1015.17 1015.73 1016.23 1016.69 1017.12 1017.52 1017.93 1018.36 1018.81 1019.29 1019.76
1015.34 1015.13 1014.78 1014.34 1013.83 1013.30 1012.79 1012.31 1011.87 1011.47 1011.08 1010.69 1010.29 1009.88 1009.47 1009.08 1008.74 1008.48 1008.33 1008.29 1008.38 1008.58 1008.88 1009.28 1009.74 1010.26 1010.84 1011.46 1012.11 1012.78 1013.46 1014.12 1014.76 1015.34 1015.85 1016.32 1016.73 1017.11 1017.50 1017.90 1018.35 1018.83 1019.34 1019.86
1014.84 1014.59 1014.23 1013.80 1013.34 1012.87 1012.43 1012.02 1011.64 1011.28 1010.92 1010.54 1010.15 1009.73 1009.32 1008.94 1008.61 1008.36 1008.22 1008.19 1008.27 1008.47 1008.77 1009.16 1009.63 1010.18 1010.78 1011.44 1012.14 1012.85 1013.56 1014.25 1014.88 1015.44 1015.93 1016.35 1016.73 1017.09 1017.46 1017.87 1018.32 1018.83 1019.37 1019.92
1014.26 1014.02 1013.69 1013.31 1012.92 1012.53 1012.16 1011.80 1011.45 1011.09 1010.71 1010.30 1009.87 1009.43 1009.01 1008.63 1008.33 1008.12 1008.02 1008.03 1008.16 1008.38 1008.70 1009.11 1009.60 1010.15 1010.78 1011.45 1012.17 1012.90 1013.62 1014.30 1014.92 1015.46 1015.93 1016.33 1016.68 1017.03 1017.40 1017.81 1018.29 1018.82 1019.38 1019.95
1013.56 1013.36 1013.11 1012.82 1012.52 1012.22 1011.92 1011.60 1011.25 1010.86 1010.43 1009.96 1009.47 1008.99 1008.55 1008.19 1007.92 1007.78 1007.76 1007.85 1008.05 1008.34 1008.71 1009.15 1009.65 1010.22 1010.84 1011.52 1012.22 1012.94 1013.64 1014.31 1014.90 1015.42 1015.86 1016.24 1016.58 1016.93 1017.30 1017.73 1018.23 1018.77 1019.35 1019.93
1012.72 1012.60 1012.46 1012.29 1012.12 1011.92 1011.68 1011.40 1011.03 1010.60 1010.09 1009.54 1008.98 1008.45 1008.00 1007.67 1007.47 1007.42 1007.51 1007.71 1008.01 1008.39 1008.83 1009.31 1009.83 1010.39 1010.99 1011.64 1012.31 1012.99 1013.65 1014.27 1014.82 1015.31 1015.73 1016.10 1016.44 1016.79 1017.18 1017.63 1018.14 1018.70 1019.28 1019.86
1011.77 1011.75 1011.73 1011.71 1011.66 1011.57 1011.42 1011.16 1010.79 1010.30 1009.73 1009.10 1008.48 1007.92 1007.48 1007.19 1007.08 1007.14 1007.35 1007.68 1008.11 1008.58 1009.08 1009.60 1010.13 1010.67 1011.24 1011.83 1012.44 1013.05 1013.65 1014.22 1014.73 1015.18 1015.57 1015.93 1016.27 1016.63 1017.04 1017.50 1018.03 1018.60 1019.19 1019.75
1010.78 1010.86 1010.96 1011.07 1011.15 1011.18 1011.10 1010.88 1010.50 1009.99 1009.37 1008.70 1008.05 1007.49 1007.07 1006.86 1006.84 1007.02 1007.37 1007.83 1008.36 1008.92 1009.48 1010.02 1010.54 1011.05 1011.56 1012.08 1012.61 1013.15 1013.68 1014.18 1014.64 1015.05 1015.42 1015.77 1016.11 1016.48 1016.90 1017.38 1017.92 1018.49 1019.08 1019.64
1009.84 1009.99 1010.19 1010.41 1010.61 1010.73 1010.72 1010.55 1010.19 1009.67 1009.04 1008.37 1007.73 1007.20 1006.85 1006.72 1006.82 1007.13 1007.59 1008.17 1008.79 1009.41 1010.00 1010.54 1011.03 1011.48 1011.92 1012.37 1012.82 1013.27 1013.73 1014.17 1014.58 1014.96 1015.31 1015.65 1015.99 1016.37 1016.80 1017.28 1017.83 1018.40 1018.98 1019.53
1009.06 1009.23 1009.49 1009.78 1010.05 1010.25 1010.30 1010.16 1009.84 1009.34 1008.74 1008.10 1007.52 1007.07 1006.82 1006.80 1007.02 1007.44 1008.01 1008.66 1009.34 1009.99 1010.58 1011.08 1011.52 1011.91 1012.28 1012.65 1013.02 1013.41 1013.81 1014.20 1014.58 1014.93 1015.27 1015.60 1015.95 1016.33 1016.76 1017.25 1017.79 1018.36 1018.93 1019.48
1008.50 1008.65 1008.90 1009.21 1009.51 1009.73 1009.81 1009.71 1009.42 1008.98 1008.44 1007.88 1007.40 1007.06 1006.93 1007.04 1007.37 1007.89 1008.54 1009.24 1009.94 1010.58 1011.14 1011.59 1011.97 1012.29 1012.59 1012.88 1013.20 1013.55 1013.91 1014.28 1014.64 1014.99 1015.33 1015.66 1016.01 1016.39 1016.82 1017.30 1017.83 1018.39 1018.96 1019.51
1008.15 1008.22 1008.41 1008.68 1008.96 1009.17 1009.25 1009.17 1008.93 1008.55 1008.09 1007.64 1007.28 1007.08 1007.09 1007.33 1007.77 1008.38 1009.08 1009.81 1010.50 1011.11 1011.61 1012.00 1012.31 1012.57 1012.81 1013.07 1013.36 1013.68 1014.04 1014.41 1014.78 1015.14 1015.49 1015.83 1016.18 1016.56 1016.98 1017.45 1017.97 1018.53 1019.09 1019.64
1007.92 1007.88 1007.98 1008.17 1008.38 1008.54 1008.60 1008.52 1008.31 1007.99 1007.64 1007.31 1007.09 1007.04 1007.20 1007.57 1008.12 1008.80 1009.54 1010.28 1010.95 1011.52 1011.96 1012.30 1012.55 1012.76 1012.97 1013.21 1013.50 1013.83 1014.21 1014.61 1015.01 1015.40 1015.76 1016.12 1016.47 1016.85 1017.26 1017.72 1018.22 1018.77 1019.33 1019.88
1007.70 1007.54 1007.52 1007.61 1007.73 1007.82 1007.83 1007.74 1007.55 1007.30 1007.04 1006.84 1006.77 1006.87 1007.17 1007.67 1008.33 1009.08 1009.87 1010.62 1011.27 1011.81 1012.21 1012.51 1012.73 1012.92 1013.12 1013.36 1013.67 1014.03 1014.45 1014.89 1015.32 1015.74 1016.14 1016.51 1016.87 1017.24 1017.64 1018.08 1018.57 1019.10 1019.65 1020.20
1007.35 1007.08 1006.95 1006.93 1006.95 1006.97 1006.93 1006.82 1006.66 1006.47 1006.30 1006.23 1006.29 1006.55 1006.99 1007.62 1008.38 1009.21 1010.05 1010.82 1011.49 1012.02 1012.41 1012.70 1012.91 1013.11 1013.32 1013.59 1013.93 1014.33 1014.78 1015.26 1015.73 1016.18 1016.60 1016.98 1017.34 1017.71 1018.09 1018.52 1018.99 1019.50 1020.04 1020.58
1006.79 1006.43 1006.22 1006.11 1006.05 1006.01 1005.93 1005.81 1005.67 1005.54 1005.46 1005.50 1005.71 1006.10 1006.68 1007.43 1008.31 1009.23 1010.14 1010.96 1011.67 1012.23 1012.65 1012.96 1013.19 1013.41 1013.66 1013.96 1014.32 1014.76 1015.24 1015.74 1016.24 1016.71 1017.13 1017.52 1017.88 1018.23 1018.60 1019.01 1019.45 1019.94 1020.46 1020.98
1006.00 1005.59 1005.32 1005.17 1005.07 1004.99 1004.90 1004.79 1004.68 1004.60 1004.62 1004.77 1005.09 1005.61 1006.32 1007.20 1008.18 1009.21 1010.20 1011.11 1011.89 1012.52 1012.99 1013.35 1013.64 1013.90 1014.18 1014.51 1014.89 1015.34 1015.83 1016.33 1016.83 1017.29 1017.72 1018.10 1018.45 1018.79 1019.14 1019.51 1019.93 1020.39 1020.87 1021.36
1005.05 1004.64 1004.36 1004.20 1004.09 1004.01 1003.93 1003.86 1003.80 1003.79 1003.89 1004.14 1004.57 1005.20 1006.03 1007.02 1008.11 1009.25 1010.35 1011.36 1012.23 1012.95 1013.51 1013.94 1014.29 1014.60 1014.91 1015.24 1015.63 1016.06 1016.53 1017.01 1017.48 1017.92 1018.32 1018.68 1019.01 1019.33 1019.66 1020.01 1020.39 1020.81 1021.25 1021.70
1004.13 1003.73 1003.48 1003.34 1003.27 1003.22 1003.18 1003.16 1003.16 1003.23 1003.41 1003.74 1004.27 1004.99 1005.92 1007.00 1008.20 1009.43 1010.63 1011.74 1012.72 1013.54 1014.19 1014.71 1015.12 1015.46 1015.79 1016.12 1016.48 1016.88 1017.30 1017.73 1018.15 1018.55 1018.92 1019.25 1019.56 1019.86 1020.16 1020.47 1020.82 1021.19 1021.58 1021.97
1003.41 1003.06 1002.85 1002.76 1002.73 1002.74 1002.76 1002.80 1002.87 1003.01 1003.26 1003.67 1004.27 1005.07 1006.06 1007.22 1008.48 1009.79 1011.08 1012.28 1013.34 1014.25 1014.99 1015.57 1016.03 1016.41 1016.74 1017.05 1017.38 1017.72 1018.07 1018.44 1018.81 1019.16 1019.48 1019.79 1020.07 1020.34 1020.61 1020.90 1021.20 1021.52 1021.85 1022.17
1003.08 1002.77 1002.61 1002.57 1002.59 1002.66 1002.75 1002.85 1002.99 1003.20 1003.52 1003.99 1004.63 1005.47 1006.50 1007.69 1008.99 1010.34 1011.67 1012.92 1014.05 1015.02 1015.82 1016.45 1016.95 1017.34 1017.66 1017.94 1018.22 1018.50 1018.79 1019.10 1019.40 1019.71 1019.99 1020.26 1020.52 1020.77 1021.01 1021.26 1021.52 1021.78 1022.04 1022.30
1003.24 1002.96 1002.84 1002.84 1002.91 1003.03 1003.17 1003.33 1003.53 1003.80 1004.16 1004.67 1005.34 1006.20 1007.23 1008.41 1009.70 1011.04 1012.37 1013.63 1014.77 1015.76 1016.58 1017.23 1017.74 1018.13 1018.44 1018.70 1018.93 1019.16 1019.40 1019.65 1019.91 1020.17 1020.42 1020.67 1020.90 1021.12 1021.34 1021.55 1021.76 1021.96 1022.16 1022.35
1003.89 1003.64 1003.54 1003.55 1003.65 1003.80 1003.98 1004.19 1004.43 1004.74 1005.15 1005.67 1006.35 1007.18 1008.18 1009.31 1010.55 1011.83 1013.11 1014.32 1015.43 1016.40 1017.21 1017.85 1018.35 1018.73 1019.02 1019.26 1019.46 1019.65 1019.86 1020.07 1020.30 1020.53 1020.76 1020.99 1021.20 1021.40 1021.58 1021.75 1021.91 1022.05 1022.19 1022.32
1004.95 1004.71 1004.60 1004.62 1004.72 1004.88 1005.09 1005.33 1005.61 1005.94 1006.37 1006.89 1007.55 1008.35 1009.28 1010.34 1011.48 1012.66 1013.84 1014.97 1016.00 1016.91 1017.67 1018.28 1018.75 1019.11 1019.39 1019.60 1019.79 1019.97 1020.16 1020.36 1020.57 1020.79 1021.00 1021.21 1021.40 1021.57 1021.72 1021.84 1021.94 1022.04 1022.11 1022.18
1006.27 1006.02 1005.90 1005.90 1005.99 1006.15 1006.36 1006.62 1006.92 1007.28 1007.71 1008.23 1008.86 1009.60 1010.46 1011.41 1012.43 1013.49 1014.54 1015.54 1016.46 1017.28 1017.96 1018.51 1018.95 1019.28 1019.55 1019.76 1019.94 1020.13 1020.31 1020.52 1020.72 1020.93 1021.14 1021.32 1021.49 1021.62 1021.72 1021.80 1021.85 1021.89 1021.92 1021.94
1007.66 1007.40 1007.26 1007.24 1007.31 1007.46 1007.67 1007.93 1008.25 1008.62 1009.06 1009.57 1010.17 1010.86 1011.63 1012.47 1013.37 1014.29 1015.19 1016.05 1016.84 1017.54 1018.13 1018.62 1019.01 1019.32 1019.57 1019.78 1019.97 1020.16 1020.36 1020.56 1020.77 1020.97 1021.16 1021.32 1021.45 1021.54 1021.59 1021.61 1021.62 1021.60 1021.59 1021.58
Thickness
5582 5583 5588 5591 5588 5588 5586 5585 5587 5588 5583 5578 5583 5589 5595 5595 5593 5594 5595 5597 5598 5600 5603 5602 5603 5605 5607 5610 5612 5614 5617 5619 5620 5622 5623 5624 5626 5628 5629 5631 5633 5635 5637 5638
5576 5580 5587 5582 5577 5574 5573 5575 5579 5579 5574 5571 5577 5583 5591 5590 5588 5589 5591 5592 5594 5595 5596 5596 5597 5600 5602 5605 5608 5609 5611 5614 5616 5617 5619 5620 5621 5621 5623 5624 5625 5627 5628 5630
5577 5582 5576 5571 5568 5567 5569 5570 5573 5570 5568 5566 5566 5581 5587 5587 5584 5583 5585 5587 5589 5590 5591 5592 5593 5595 5598 5600 5601 5603 5605 5607 5609 5610 5610 5611 5612 5612 5614 5616 5618 5619 5621 5622
5567 5570 5564 5564 5565 5564 5567 5567 5562 5558 5558 5566 5563 5572 5588 5584 5580 5580 5580 5581 5583 5584 5586 5587 5589 5590 5592 5594 5595 5597 5598 5600 5602 5604 5605 5607 5608 5608 5609 5610 5611 5611 5612 5613
5563 5559 5557 5559 5563 5559 5562 5555 5552 5551 5552 5555 5559 5559 5585 5579 5578 5579 5579 5577 5578 5579 5581 5582 5583 5584 5585 5586 5587 5589 5591 5593 5595 5597 5599 5601 5602 5603 5602 5603 5603 5604 5604 5605
5554 5550 5550 5554 5552 5550 5546 5543 5542 5542 5544 5548 5563 5559 5580 5580 5579 5579 5577 5573 5572 5572 5574 5575 5576 5577 5577 5578 5580 5582 5584 5586 5588 5590 5592 5594 5595 5595 5595 5595 5595 5596 5597 5597
5543 5543 5542 5542 5541 5538 5539 5540 5540 5541 5542 5558 5557 5554 5573 5575 5573 5571 5570 5568 5566 5565 5567 5568 5569 5569 5570 5570 5572 5575 5577 5579 5580 5582 5584 5585 5586 5587 5588 5588 5588 5589 5589 5590
5539 5543 5539 5536 5541 5541 5539 5541 5543 5545 5553 5560 5543 5552 5571 5563 5560 5558 5558 5559 5558 5559 5560 5561 5562 5563 5563 5564 5565 5567 5569 5570 5572 5574 5575 5576 5577 5579 5580 5580 5581 5581 5581 5582
5533 5537 5529 5528 5529 5532 5531 5533 5538 5535 5533 5539 5555 5556 5556 5554 5551 5549 5549 5550 5551 5552 5553 5554 5555 5555 5556 5557 5558 5560 5561 5562 5563 5565 5566 5567 5568 5569 5570 5570 5571 5572 5573 5573
5522 5521 5520 5515 5515 5516 5523 5527 5520 5521 5526 5537 5553 5554 5560 5551 5549 5545 5543 5543 5544 5544 5545 5545 5547 5547 5548 5549 5549 5551 5552 5553 5554 5556 5557 5557 5559 5560 5561 5561 5562 5563 5563 5563
5506 5507 5505 5505 5511 5518 5510 5511 5518 5523 5526 5532 5541 5555 5552 5548 5544 5540 5537 5536 5536 5537 5537 5537 5538 5538 5539 5539 5540 5542 5543 5543 5544 5545 5546 5547 5549 5550 5551 5551 5552 5553 5553 5553
5492 5495 5500 5503 5502 5504 5509 5512 5513 5513 5513 5517 5528 5542 5536 5535 5533 5530 5528 5526 5526 5526 5526 5527 5528 5529 5529 5530 5531 5532 5533 5534 5534 5535 5536 5538 5539 5539 5540 5541 5541 5541 5542 5542
5476 5478 5486 5491 5486 5484 5490 5495 5498 5501 5503 5505 5513 5531 5521 5521 5520 5519 5517 5516 5515 5515 5515 5517 5518 5519 5520 5521 5522 5523 5524 5525 5525 5525 5526 5527 5527 5528 5529 5530 5530 5530 5530 5531
5465 5469 5482 5495 5500 5488 5483 5485 5486 5485 5489 5500 5511 5523 5517 5511 5510 5509 5507 5506 5505 5505 5505 5507 5507 5509 5510 5511 5512 5513 5513 5514 5513 5514 5515 5515 5516 5517 5518 5518 5518 5519 5519 5519
5449 5457 5466 5475 5479 5478 5479 5481 5480 5479 5489 5492 5506 5509 5514 5505 5500 5499 5496 5494 5494 5494 5494 5496 5498 5499 5500 5502 5502 5503 5503 5502 5502 5503 5504 5505 5505 5505 5506 5506 5506 5506 5506 5506
5433 5440 5446 5453 5460 5461 5464 5473 5474 5476 5480 5484 5489 5494 5499 5493 5489 5486 5485 5483 5483 5483 5484 5485 5486 5488 5489 5490 5491 5491 5491 5491 5492 5493 5493 5494 5494 5494 5494 5494 5493 5493 5493 5493
5417 5422 5429 5442 5445 5442 5452 5466 5466 5468 5471 5473 5477 5487 5481 5476 5476 5476 5475 5473 5474 5474 5473 5474 5476 5477 5477 5478 5479 5480 5480 5480 5481 5482 5481 5482 5482 5483 5482 5481 5481 5481 5481 5480
5404 5410 5416 5425 5425 5425 5458 5457 5460 5461 5462 5462 5466 5469 5467 5467 5465 5465 5464 5464 5464 5464 5463 5464 5464 5465 5466 5466 5466 5467 5467 5468 5468 5469 5468 5468 5468 5469 5469 5469 5469 5469 5468 5468
5397 5400 5403 5410 5420 5434 5442 5438 5439 5444 5449 5449 5451 5452 5451 5449 5449 5451 5450 5451 5452 5452 5452 5452 5452 5453 5453 5453 5453 5453 5453 5454 5454 5455 5455 5455 5455 5456 5456 5456 5456 5455 5454 5454
5384 5388 5391 5398 5405 5416 5431 5426 5426 5430 5438 5437 5437 5437 5438 5438 5445 5447 5439 5437 5437 5438 5438 5439 5439 5439 5440 5440 5439 5440 5440 5441 5442 5441 5442 5442 5442 5443 5443 5443 5442 5441 5440 5440
5371 5373 5378 5387 5395 5407 5409 5408 5414 5419 5429 5424 5424 5425 5426 5431 5435 5430 5424 5424 5424 5424 5424 5425 5426 5426 5427 5427 5427 5428 5428 5429 5428 5428 5428 5428 5429 5429 5429 5428 5427 5427 5426 5426
5367 5370 5372 5378 5382 5389 5391 5394 5400 5406 5406 5408 5410 5412 5411 5410 5410 5410 5410 5410 5410 5411 5411 5412 5413 5413 5413 5414 5414 5415 5414 5414 5414 5414 5415 5414 5415 5414 5414 5413 5413 5413 5413 5413
5357 5361 5367 5370 5374 5376 5377 5381 5384 5386 5390 5393 5395 5396 5395 5395 5396 5396 5396 5397 5398 5398 5399 5399 5400 5400 5400 5400 5401 5401 5400 5400 5400 5400 5400 5400 5400 5400 5400 5400 5400 5400 5400 5401
5344 5346 5351 5353 5357 5361 5364 5367 5370 5373 5376 5379 5381 5381 5382 5382 5383 5383 5384 5385 5384 5384 5385 5385 5385 5386 5387 5387 5387 5388 5387 5387 5387 5387 5387 5387 5388 5388 5388 5388 5388 5388 5389 5389
5331 5336 5339 5342 5345 5350 5354 5356 5358 5361 5363 5364 5366 5368 5369 5370 5370 5371 5371 5371 5371 5371 5371 5371 5372 5373 5374 5374 5374 5375 5375 5375 5375 5375 5375 5376 5376 5376 5376 5376 5376 5376 5377 5377
5317 5324 5331 5337 5339 5340 5343 5344 5345 5347 5349 5351 5353 5354 5356 5358 5358 5358 5359 5359 5359 5358 5358 5358 5359 5361 5361 5362 5362 5363 5363 5363 5363 5364 5364 5364 5364 5364 5364 5364 5364 5363 5363 5364